Location: Newark
(48.5667°N, 3.3000°E)
Time: 07:09:24
(UTC+00:00)

N. Korean satellite - Pass Details

Date: 31 October 2019
Orbit: 456 x 506 km, 97.2° (Epoch: 12 November)

Event Time Altitude Azimuth Distance (km) Brightness Sun altitude
Rises 17:00:09 0° 176° (S) 2,483 10.3 -5.7°
Reaches altitude 10° 17:02:11 10° 180° (S) 1,619 9.4 -6.0°
Maximum altitude 17:05:37 56° 260° (W) 569 7.4 -6.6°
Drops below altitude 10° 17:09:07 10° 339° (NNW) 1,660 9.4 -7.1°
Sets 17:11:14 0° 344° (NNW) 2,554 10.3 -7.5°
